Flight Track Log - Related Links

Times and Time Zones

All times are in EDT time to prevent confusion due to time zone crossing. See the EGF4247 flight status page for this flight to view local times or setup timezone preferences in your user account.

Time Position Orientation Groundspeed Altitude Reporting Facility
EDT Latitude Longitude Course Direction KTS MPH feet Rate Location/Type
Wed 16:58:45 42.9167 -78.7500 270° West 172 198 1,600  Level Buffalo TRACON
Wed 16:59:03 42.9167 -78.7500 270° West 171 197 2,300 2,077 Climbing Buffalo TRACON
Wed 17:00:03 42.8833 -78.8333 241° Southwest 233 268 4,300 2,250 Climbing Buffalo TRACON
Wed 17:01:00 42.9526 -79.0971 277° West  Level FlightAware Approximate
Wed 17:01:03 42.9000 -78.9333 283° West 288 331 6,800  Level Buffalo TRACON
Wed 17:02:00 42.9631 -79.2240 277° West  Level FlightAware Approximate
Wed 17:02:03 42.9000 -79.0333 270° West 285 328 9,200  Level Buffalo TRACON
Wed 17:03:00 42.9667 -79.3515 270° West  Level FlightAware Approximate
Wed 17:03:03 42.9167 -79.1500 281° West 308 354 10,700  Level Buffalo TRACON
Wed 17:03:57 42.9167 -79.2500 270° West 340 391 12,000 1,211 Climbing Toronto Center
Wed 17:04:00 42.9667 -79.4792 270° West  Level FlightAware Approximate
Wed 17:04:57 42.9167 -79.3833 270° West 370 426 13,000  Level Toronto Center
Wed 17:05:57 42.9333 -79.5500 278° West 380 437 14,800 1,600 Climbing Toronto Center
Wed 17:06:57 42.9333 -79.6833 270° West 380 437 16,200 1,500 Climbing Toronto Center
Wed 17:07:57 42.9500 -79.8167 280° West 380 437 17,800 1,400 Climbing Toronto Center
Wed 17:08:57 42.9667 -79.9667 279° West 380 437 19,000 1,200 Climbing Toronto Center
Wed 17:09:57 42.9667 -80.1167 270° West 390 449 20,200 1,200 Climbing Toronto Center
Wed 17:10:57 42.9833 -80.2667 279° West 400 460 21,400 1,250 Climbing Toronto Center
Wed 17:11:57 42.9833 -80.4333 270° West 410 472 22,700 1,250 Climbing Toronto Center
Wed 17:12:57 42.9833 -80.5667 270° West 410 472 23,900 1,000 Climbing Toronto Center
Wed 17:13:57 42.9833 -80.7333 270° West 410 472 24,700 700 Climbing Toronto Center
Wed 17:14:57 42.9667 -80.8833 261° West 420 483 25,300 700 Climbing Toronto Center
Wed 17:15:57 42.9667 -81.0667 270° West 430 495 26,100 750 Climbing Toronto Center
Wed 17:16:57 42.9833 -81.2333 278° West 430 495 26,800 700 Climbing Toronto Center
Wed 17:17:57 42.9833 -81.3833 270° West 430 495 27,500 650 Climbing Toronto Center
Wed 17:18:57 42.9833 -81.5500 270° West 430 495 28,100 550 Climbing Toronto Center
Wed 17:19:57 42.9833 -81.7333 270° West 440 506 28,600 500 Climbing Toronto Center
Wed 17:20:57 42.9833 -81.8833 270° West 440 506 29,100 500 Climbing Toronto Center
Wed 17:21:57 42.9667 -82.0500 262° West 440 506 29,600 500 Climbing Toronto Center
Wed 17:22:57 42.9667 -82.2333 270° West 450 518 30,100 600 Climbing Toronto Center
Wed 17:23:57 42.9833 -82.3833 279° West 450 518 30,800 700 Climbing Toronto Center
Wed 17:24:57 42.9833 -82.5667 270° West 450 518 31,500 661 Climbing Toronto Center
Wed 17:25:46 42.9828 -82.6947 270° West 451 519 32,000 275 Climbing Cleveland Center
Wed 17:26:46 42.9817 -82.8650 270° West 451 519 32,000  Level Cleveland Center
Wed 17:27:46 42.9781 -83.0378 268° West 457 526 32,000  Level Cleveland Center
Wed 17:28:46 42.9742 -83.2081 268° West 457 526 32,000  Level Cleveland Center
Wed 17:29:46 42.9722 -83.3811 269° West 457 526 32,000  Level Cleveland Center
Wed 17:30:46 42.9700 -83.5542 269° West 457 526 32,000  Level Cleveland Center
Wed 17:31:46 42.9656 -83.7214 268° West 457 526 32,000  Level Cleveland Center
Wed 17:32:46 42.9525 -83.8936 264° West 457 526 32,000  Level Cleveland Center
Wed 17:33:46 42.9344 -84.0772 262° West 462 532 32,000  Level Cleveland Center
Wed 17:34:46 42.9169 -84.2464 262° West 462 532 32,000  Level Cleveland Center
Wed 17:36:00 42.8994 -84.4253 262° West 446 513 32,000  Level Chicago Center
Wed 17:37:02 42.8817 -84.5933 262° West 449 517 32,000  Level Chicago Center
Wed 17:38:04 42.8617 -84.7983 262° West 454 522 32,000  Level Chicago Center
Wed 17:39:06 42.8425 -84.9686 261° West 455 524 32,000  Level Chicago Center
Wed 17:40:08 42.8253 -85.1394 262° West 455 524 32,000  Level Chicago Center
Wed 17:41:11 42.8072 -85.3086 262° West 453 521 32,000 -288 Level Chicago Center
Wed 17:42:13 42.7886 -85.4781 262° West 452 520 31,400 -1,597 Descending Chicago Center
Wed 17:43:15 42.7600 -85.6436 257° West 449 517 28,700 -3,000 Descending Chicago Center
Wed 17:44:17 42.7225 -85.8467 256° West 456 525 25,200 -2,952 Descending Chicago Center
Wed 17:45:19 42.6933 -86.0122 257° West 449 517 22,600 -2,274 Descending Chicago Center
Wed 17:46:21 42.6642 -86.1692 256° West 432 497 20,500 -1,258 Descending Chicago Center
Wed 17:47:23 42.6358 -86.3225 256° West 420 483 20,000 -242 Descending Chicago Center
Wed 17:48:25 42.6061 -86.4750 255° West 419 482 20,000 -1,065 Level Chicago Center
Wed 17:49:27 42.5786 -86.6219 256° West 407 468 17,800 -2,352 Descending Chicago Center
Wed 17:50:30 42.5514 -86.7647 256° West 394 453 15,100 -2,736 Descending Chicago Center
Wed 17:51:32 42.5075 -86.9197 249° West 370 426 12,100 -2,468 Descending Chicago Center
Wed 17:52:34 42.4739 -87.0428 250° West 356 410 10,000 -1,065 Descending Chicago Center
Wed 17:53:36 42.4411 -87.1583 249° West 336 387 9,900 -97 Descending Chicago Center
Wed 17:54:38 42.4117 -87.2656 250° West 308 354 9,800 -532 Descending Chicago Center
Wed 17:55:40 42.3872 -87.3575 250° West 263 303 8,800 -1,065 Descending Chicago Center
Wed 17:56:42 42.3558 -87.4644 248° West 260 299 7,600 -864 Descending Chicago Center
Wed 17:57:45 42.3161 -87.5439 236° Southwest 257 296 7,000 -288 Descending Chicago Center
Wed 17:58:47 42.2606 -87.6031 218° Southwest 254 292 7,000 -387 Level Chicago Center
Wed 17:59:49 42.2128 -87.6569 220° Southwest 227 261 6,200 -1,016 Descending Chicago Center
Wed 18:00:51 42.1669 -87.7094 220° Southwest 218 251 4,900 -1,306 Descending Chicago Center
Wed 18:01:53 42.1125 -87.7706 220° Southwest 215 247 3,500 -1,259 Descending Chicago Center
Wed 18:02:12 42.1000 -87.7833 217° Southwest 220 253 3,200 -947 Descending Chicago TRACON

Login

Don't have an account? Register now (free) for customized features, flight alerts, and more!